This is the latest recevied weather packets stored in our database for station/object K2CAT. If no packets are shown the sender has not sent any weather packets the latest 10 day(s).
| Time | Temp. | Humidity | Pressure | Rain* | Wind** | Luminosity | Snow |
|---|---|---|---|---|---|---|---|
| 1777391629 | 19.44° C | 41% | 1020.7 hPa | 0 mm | - | 449 W/m² | - |
| 1777391326 | 20° C | 41% | 1020.4 hPa | 0 mm | - | 504 W/m² | - |
| 1777391023 | 19.44° C | 42% | 1020.3 hPa | 0 mm | - | 524 W/m² | - |
| 1777390718 | 19.44° C | 45% | 1020.7 hPa | 0 mm | - | 542 W/m² | - |
| 1777390415 | 19.44° C | 45% | 1020.8 hPa | 0 mm | - | 559 W/m² | - |
| 1777390111 | 18.89° C | 44% | 1020.7 hPa | 0 mm | - | 527 W/m² | - |
| 1777389808 | 18.33° C | 45% | 1020.7 hPa | 0 mm | - | 437 W/m² | - |
| 1777389506 | 17.78° C | 45% | 1020.8 hPa | 0 mm | - | 377 W/m² | - |
| 1777389202 | 18.33° C | 46% | 1020.6 hPa | 0 mm | - | 299 W/m² | - |
| 1777388900 | 17.78° C | 50% | 1020.7 hPa | 0 mm | - | 359 W/m² | - |
| 1777388596 | 17.78° C | 49% | 1020.5 hPa | 0 mm | - | 369 W/m² | - |
| 1777388293 | 17.78° C | 48% | 1020.7 hPa | 0 mm | - | 323 W/m² | - |
| 1777387993 | 17.22° C | 47% | 1020.7 hPa | 0 mm | - | 363 W/m² | - |
| 1777387690 | 17.78° C | 49% | 1020.8 hPa | 0 mm | - | 289 W/m² | - |
| 1777387386 | 17.78° C | 46% | 1020.8 hPa | 0 mm | - | 453 W/m² | - |
| 1777387080 | 17.78° C | 49% | 1020.8 hPa | 0 mm | - | 342 W/m² | - |
| 1777386777 | 17.78° C | 46% | 1020.9 hPa | 0 mm | - | 254 W/m² | - |
| 1777386478 | 17.22° C | 51% | 1020.8 hPa | 0 mm | - | 299 W/m² | - |
| 1777386171 | 16.67° C | 51% | 1020.8 hPa | 0 mm | - | 361 W/m² | - |
| 1777385868 | 16.67° C | 51% | 1020.8 hPa | 0 mm | - | 223 W/m² | - |
| 1777385565 | 16.11° C | 53% | 1021 hPa | 0 mm | - | 185 W/m² | - |
| 1777385262 | 15.56° C | 52% | 1021.1 hPa | 0 mm | - | 136 W/m² | - |
| 1777384957 | 15.56° C | 55% | 1020.9 hPa | 0 mm | - | 118 W/m² | - |
| 1777384656 | 15° C | 57% | 1020.9 hPa | 0 mm | - | 100 W/m² | - |
| 1777384355 | 15° C | 54% | 1021.2 hPa | 0 mm | - | 79 W/m² | - |
* Rain latest hour (hover to see other rain measurements)
** Current wind speed in m/s (hover to see current wind gust speed)